Weather History for Frenchville, ME

Change the Weather History Date:

Friday, February 28, 2014

  Actual Average Record
Temperature  
Mean Temperature 4 °F 18 °F  
Max Temperature 12 °F 26 °F 42 °F (1998)
Min Temperature -4 °F 9 °F -5 °F (2001)
Degree Days  
Heating Degree Days 61    
Month to date heating degree days 1500  
Since 1 July heating degree days 6934  
Cooling Degree Days 0    
Month to date cooling degree days 0  
Year to date cooling degree days 0  
Moisture  
Dew Point -6 °F    
Average Humidity 68    
Maximum Humidity 91    
Minimum Humidity 38    
Precipitation  
Precipitation T in 0.04 in 0.50 in (2013)
Month to date precipitation 0.92 0.81  
Year to date precipitation 2.92 2.57  
Sea Level Pressure  
Sea Level Pressure 29.96 in    
Wind  
Wind Speed 12 mph (WNW)    
Max Wind Speed 29 mph    
Max Gust Speed 34 mph    
Visibility 9 miles    
Events Snow    
T = Trace of Precipitation, MM = Missing Value Source: NWS Daily Summary

Daily Weather History Graph

Daily Weather History Graph

Search for Another Location

Airport:

Trip Planner

Search our weather history database for the weather conditions in past years. The results will help you decide how hot, cold, wet, or windy it might be!

Date:

Astronomy

Feb. 28, 2014 Rise Set
Actual Time 6:15 AM EST 5:16 PM EST
Civil Twilight 5:44 AM EST 5:47 PM EST
Nautical Twilight 5:09 AM EST 6:23 PM EST
Astronomical Twilight 4:33 AM EST 6:58 PM EST
Moon 5:28 AM EST (2/28) 4:50 PM EST (2/28)
Length of Visible Light 12h 03m
Length of Day
11h 01m
Waning Crescent, 1% of the Moon is Illuminated
Feb 28
Waning Crescent
Mar 1
New
Mar 8
First Quarter
Mar 16
Full
Mar 23
Last Quarter

Hourly Weather History & Observations

Time (EST) Temp. Windchill Dew Point Humidity Pressure Visibility Wind Dir Wind Speed Gust Speed Precip Events Conditions
12:36 AM 3.0 °F -4.4 °F -0.9 °F 84% 29.58 in 10.0 mi South 3.5 mph - N/A   Partly Cloudy
12:53 AM 1.9 °F - -2.0 °F 83% 29.65 in 10.0 mi Calm Calm - N/A   Partly Cloudy
1:53 AM 1.0 °F - -4.0 °F 79% 29.66 in 10.0 mi Calm Calm - N/A   Clear
2:24 AM -0.0 °F -7.9 °F -2.9 °F 88% 29.60 in 10.0 mi SW 3.5 mph - N/A   Mostly Cloudy
2:53 AM -2.0 °F - -6.0 °F 83% 29.68 in 8.0 mi Calm Calm - N/A   Overcast
3:09 AM -0.0 °F -11.6 °F -2.0 °F 91% 29.62 in 9.0 mi Variable 5.8 mph - N/A   Overcast
3:53 AM -2.0 °F -18.7 °F -5.1 °F 87% 29.71 in 10.0 mi West 10.4 mph - N/A   Scattered Clouds
4:48 AM -0.4 °F -18.4 °F -4.0 °F 85% 29.68 in 10.0 mi West 12.7 mph - N/A   Overcast
4:53 AM -0.0 °F -18.0 °F -4.0 °F 83% 29.75 in 9.0 mi West 12.7 mph - N/A   Overcast
5:26 AM 1.0 °F -15.8 °F -2.9 °F 83% 29.70 in 9.0 mi West 11.5 mph - 0.00 in   Overcast
5:53 AM -0.9 °F -17.4 °F -4.0 °F 87% 29.79 in 10.0 mi West 10.4 mph - 0.00 in   Mostly Cloudy
6:03 AM -0.9 °F -18.3 °F -4.0 °F 87% 29.72 in 10.0 mi West 11.5 mph - N/A   Scattered Clouds
6:53 AM -0.0 °F -17.1 °F -4.0 °F 83% 29.82 in 6.0 mi West 11.5 mph - N/A   Partly Cloudy
7:53 AM 1.0 °F -14.0 °F -2.0 °F 87% 29.86 in 9.0 mi WNW 9.2 mph - N/A   Clear
8:10 AM 1.9 °F -13.8 °F -2.0 °F 83% 29.81 in 7.0 mi West 10.4 mph - N/A   Mostly Cloudy
8:53 AM 7.0 °F -9.8 °F -0.0 °F 73% 29.90 in 9.0 mi WNW 13.8 mph 24.2 mph N/A   Overcast
9:53 AM 8.1 °F -10.2 °F -2.9 °F 61% 29.94 in 7.0 mi NW 17.3 mph 29.9 mph 0.00 in   Overcast
10:07 AM 8.1 °F -10.2 °F -2.0 °F 64% 29.89 in 7.0 mi NW 17.3 mph 26.5 mph N/A   Mostly Cloudy
10:53 AM 9.0 °F -12.2 °F -6.0 °F 51% 29.99 in 9.0 mi NW 25.3 mph 33.4 mph 0.00 in   Scattered Clouds
11:53 AM 10.0 °F -8.6 °F -11.0 °F 38% 30.01 in 8.0 mi NW 19.6 mph 34.5 mph N/A   Clear
12:53 PM 10.0 °F -5.9 °F -9.0 °F 42% 30.05 in 10.0 mi NW 13.8 mph 23.0 mph N/A   Partly Cloudy
1:53 PM 10.0 °F -7.6 °F -9.9 °F 40% 30.08 in 10.0 mi NW 17.3 mph - N/A   Mostly Cloudy
2:53 PM 12.0 °F -6.5 °F -7.1 °F 42% 30.11 in 10.0 mi West 20.7 mph 28.8 mph N/A   Overcast
3:53 PM 9.0 °F -6.6 °F -5.1 °F 53% 30.14 in 10.0 mi West 12.7 mph - N/A   Overcast
4:53 PM 8.1 °F -9.0 °F -4.0 °F 58% 30.18 in 10.0 mi NNW 15.0 mph - N/A   Overcast
5:28 PM 6.1 °F -8.7 °F -0.0 °F 76% 30.13 in 2.0 mi NW 10.4 mph - 0.00 in Snow Light Snow
5:37 PM 6.1 °F -7.8 °F -0.0 °F 76% 30.13 in 2.5 mi NW 9.2 mph - 0.00 in Snow Light Snow
5:43 PM 6.1 °F -8.7 °F -0.0 °F 76% 30.13 in 5.0 mi WNW 10.4 mph - 0.00 in Snow Light Snow
5:53 PM 5.0 °F -9.1 °F -2.0 °F 73% 30.22 in 10.0 mi WNW 9.2 mph - 0.00 in   Mostly Cloudy
6:53 PM 1.9 °F -16.9 °F -11.9 °F 52% 30.26 in 10.0 mi NNW 15.0 mph 20.7 mph N/A   Clear
7:53 PM 1.0 °F -15.8 °F -17.0 °F 43% 30.28 in 10.0 mi NW 11.5 mph - N/A   Clear
8:53 PM -0.0 °F -15.3 °F -17.0 °F 45% 30.31 in 10.0 mi WNW 9.2 mph - N/A   Clear
9:53 PM -2.0 °F -18.7 °F -17.0 °F 49% 30.34 in 10.0 mi WNW 10.4 mph - N/A   Clear
10:53 PM -2.9 °F -17.7 °F -16.1 °F 54% 30.35 in 10.0 mi WNW 8.1 mph - N/A   Clear
11:53 PM -2.9 °F -17.7 °F -15.0 °F 56% 30.37 in 10.0 mi West 8.1 mph - N/A   Clear